Weather observations for the past three days for
Oscoda, Oscoda-Wurtsmith Airport
Metric (Imperial)
Date Time (edt) Wind (kph) Vis. (km) Weather Sky Cond. Temperature (ºC) Relative Humidity Wind Chill (°C) Heat Index (°C) Pressure Precipitation (cm)
Air Dwpt 6 hour altimeter (cm) sea level (mb) 1 hr 3 hr 6 hr
Max. Min.
05 13:55 NE 15 16.09 Fair CLR 23 16 23.6 17.8 65% 76.33 0.0
05 13:35 E 17 16.09 Fair CLR 23 16 65% 76.33 0.0
05 13:15 E 17 16.09 Fair CLR 23 16 65% 76.33 0.0
05 12:55 E 19 16.09 Fair CLR 23 16 65% 76.33 0.0
05 12:35 E 19 16.09 Fair CLR 23 17 69% 76.33 0.0
05 12:15 E 17 16.09 Fair CLR 23 16 65% 76.33 0.0
05 11:35 NE 20 16.09 Fair CLR 23 17 69% 76.33 0.0
05 11:15 NE 19 16.09 Fair CLR 23 17 69% 76.3 0.0
05 10:55 E 19 16.09 Fair CLR 23 17 69% 76.28 0.0
05 10:35 NE 17 16.09 Fair CLR 22 17 73% 76.28 0.0
05 10:15 NE 15 16.09 Fair CLR 22 17 73% 76.28 0.0
05 09:55 NE 15 16.09 Fair CLR 22 17 73% 76.28 0.0
05 09:35 NE 15 16.09 Fair CLR 21 17 78% 76.28 0.0
05 09:15 NE 13 16.09 Fair CLR 21 17 78% 76.25 0.0
05 08:55 N 11 16.09 Fair CLR 20 18 88% 76.25 0.0
05 08:35 N 9 16.09 Fair CLR 19 17 88% 76.28 0.0
05 08:15 N 9 16.09 Fair CLR 19 17 88% 76.25 0.0
05 07:55 N 9 16.09 Fair CLR 18 17 18.5 17.4 94% 76.25 0.0
05 07:35 N 9 16.09 Partly Cloudy SCT070 18 16 88% 76.25 0.0
05 07:15 N 11 16.09 Overcast OVC070 18 16 88% 76.25 0.0
05 06:55 N 7 16.09 Overcast OVC070 18 17 94% 76.25 0.0
05 06:35 N 6 16.09 Overcast OVC070 18 17 94% 76.23 0.0
05 06:15 N 9 16.09 Overcast OVC080 17 17 100% 76.23 0.0
05 05:55 N 7 16.09 Overcast OVC080 17 16 94% 76.2 0.0
05 05:35 N 7 16.09 Overcast OVC080 18 17 94% 76.2 0.0
05 05:15 N 7 16.09 Overcast SCT060 SCT070 OVC080 18 17 94% 76.23 0.0
05 04:55 N 7 16.09 Overcast SCT060 OVC070 18 17 94% 76.2 0.0
05 04:35 N 9 16.09 Overcast FEW050 OVC070 18 17 94% 76.2 0.0
05 04:15 N 9 16.09 Overcast BKN050 OVC070 18 17 94% 76.17 0.0
05 03:55 N 7 16.09 Overcast OVC050 18 17 94% 76.17 0.0
05 03:35 NW 7 16.09 Overcast OVC050 18 17 94% 76.17 0.0
05 03:15 NW 6 16.09 Overcast OVC050 18 17 94% 76.17 0.0
05 02:55 NW 4 16.09 Overcast OVC050 18 17 94% 76.17 0.0
05 02:35 N 6 16.09 Overcast OVC050 18 17 94% 76.17 0.0
05 02:15 N 7 16.09 Overcast OVC050 18 17 94% 76.17 0.0
05 01:55 N 9 16.09 Overcast OVC050 18 17 19.7 17.8 94% 76.17 0.0
05 01:35 N 6 16.09 Overcast OVC050 18 17 94% 76.17 0.0
05 01:15 N 6 16.09 Overcast OVC050 19 17 88% 76.2 0.0
05 00:55 N 6 16.09 Overcast OVC050 19 17 88% 76.17 0.0
05 00:35 N 7 16.09 Overcast OVC050 19 17 88% 76.17 0.0
05 00:15 N 6 16.09 Overcast OVC048 18 17 94% 76.17 0.0
04 23:55 NW 6 16.09 Overcast OVC048 18 17 94% 76.2 0.0
04 23:35 NW 6 16.09 Overcast OVC050 18 17 94% 76.2 0.0
04 23:15 N 4 16.09 Overcast BKN050 OVC075 18 17 94% 76.2 0.0
04 22:55 N 6 16.09 Overcast BKN050 OVC060 19 17 88% 76.23 0.0
04 22:35 N 6 16.09 Overcast BKN050 OVC060 19 17 88% 76.23 0.0
04 22:15 N 6 16.09 Overcast SCT037 BKN050 OVC060 19 17 88% 76.25 0.0
04 21:55 NE 6 16.09 Overcast OVC037 19 17 88% 76.23 0.0
04 21:35 NE 7 16.09 Overcast OVC037 19 17 88% 76.23 0.0
04 21:15 E 6 16.09 Overcast OVC035 20 17 83% 76.23 0.0
04 20:55 NE 6 16.09 Overcast OVC035 20 17 83% 76.2 0.0
04 20:35 NE 6 16.09 Overcast OVC035 20 17 83% 76.2 0.0
04 20:15 NE 7 16.09 Overcast OVC033 19 17 88% 76.2 0.0
04 19:55 NE 9 16.09 Overcast OVC033 20 17 21.2 19.6 83% 76.17 0.0
04 19:35 NE 9 16.09 Overcast OVC031 20 17 83% 76.17 0.0
04 19:15 NE 7 16.09 Overcast OVC027 20 17 83% 76.17 0.0
04 18:55 NE 9 16.09 Overcast OVC027 20 17 83% 76.15 0.0
04 18:35 NE 9 16.09 Overcast OVC027 20 17 83% 76.15 0.0
04 18:15 E 9 16.09 Overcast OVC027 20 17 83% 76.15 0.0
04 17:55 NE 11 16.09 Overcast OVC029 20 17 83% 76.12 0.0
04 17:35 NE 15 16.09 Overcast OVC027 21 17 78% 76.12 0.0
04 17:15 NE 9 16.09 Overcast OVC027 21 17 78% 76.15 0.0
04 16:55 NE 11 16.09 Overcast OVC027 21 17 78% 76.15 0.0
04 16:35 E 11 16.09 Overcast OVC025 21 17 78% 76.15 0.0
04 16:15 E 11 16.09 Overcast OVC023 21 16 73% 76.15 0.0
04 15:55 E 11 16.09 Overcast OVC023 21 16 73% 76.17 0.0
04 15:35 E 13 16.09 Overcast OVC021 21 17 78% 76.15 0.0
04 15:15 E 9 16.09 Overcast OVC021 21 17 78% 76.15 0.0
04 14:55 E 11 16.09 Overcast OVC021 21 17 78% 76.15 0.0
04 14:35 E 17 16.09 Overcast OVC021 21 17 78% 76.15 0.0
04 14:15 E 17 16.09 Overcast OVC021 21 17 78% 76.15 0.0
04 13:55 E 17 16.09 Overcast OVC021 20 16 21.6 19.6 78% 76.17 0.0
04 13:35 E 15 16.09 Overcast OVC021 20 16 78% 76.15 0.0
04 13:15 E 13 16.09 Overcast OVC021 20 16 78% 76.17 0.0
04 12:55 NE 13 16.09 Overcast OVC023 20 17 83% 76.2 0.0
04 12:35 E 13 16.09 Overcast BKN025 OVC047 21 17 78% 76.2 0.0
04 12:15 E 13 16.09 Overcast OVC025 21 16 73% 76.23 0.0
04 11:55 SE 11 16.09 Overcast OVC027 21 15 69% 76.2 0.0
04 11:35 E 11 16.09 Overcast OVC027 21 14 64% 76.23 0.0
04 11:15 E 11 16.09 Overcast OVC027 22 16 69% 76.23 0.0
04 10:55 E 13 16.09 Overcast OVC027 21 17 78% 76.23 0.0
04 10:35 NE 9 16.09 Overcast BKN027 OVC050 20 17 83% 76.25 0.0
04 10:15 NE 11 16.09 Overcast BKN027 BKN043 OVC050 20 17 83% 76.23 0.0
04 09:55 E 7 16.09 Overcast BKN035 BKN042 OVC050 20 16 78% 76.2 0.0
04 09:35 E 9 16.09 Overcast OVC033 21 16 73% 76.23 0.0
04 09:15 E 9 16.09 Overcast OVC031 21 16 73% 76.2 0.0
04 08:55 N 6 16.09 Overcast OVC029 20 18 88% 76.2 0.0
04 08:35 NW 4 16.09 Overcast OVC027 20 18 88% 76.2 0.0
04 08:15 SE 4 16.09 Overcast OVC027 20 17 83% 76.2 0.0
04 07:55 NE 7 16.09 Overcast OVC027 20 17 20 19.1 83% 76.17 0.0
04 07:35 NE 6 16.09 Overcast OVC027 20 17 83% 76.15 0.0
04 07:15 E 6 16.09 Overcast OVC027 20 17 83% 76.12 0.0
04 06:55 E 2 16.09 Overcast OVC027 20 18 88% 76.12 0.0
04 06:35 N 4 16.09 Overcast OVC027 19 18 94% 76.12 0.0
04 06:15 NW 4 16.09 Overcast OVC027 19 18 94% 76.12 0.0
04 05:55 NW 4 16.09 Overcast OVC027 19 18 94% 76.12 0.0
04 05:35 NW 4 16.09 Overcast OVC029 19 18 94% 76.12 0.0
04 05:15 SW 2 16.09 Overcast OVC029 19 18 94% 76.12 0.0
04 04:55 NE 2 16.09 Overcast OVC029 20 18 88% 76.12 0.0
04 04:35 NE 2 16.09 Overcast OVC031 19 18 94% 76.12 0.0
04 04:15 W 4 16.09 Overcast OVC033 20 18 88% 76.12 0.0
04 03:55 N 4 16.09 Overcast OVC033 19 18 94% 76.12 0.0
04 03:15 N 4 16.09 Overcast OVC031 19 18 94% 76.15 0.0
04 02:55 E 2 16.09 Overcast BKN031 BKN037 OVC050 20 18 88% 76.15 0.0
04 02:35 SW 2 16.09 Overcast FEW037 BKN045 OVC050 20 18 88% 76.15 0.0
04 02:15 W 4 16.09 Overcast SCT031 SCT038 OVC045 20 18 88% 76.17 0.0
04 01:55 W 6 16.09 Overcast OVC031 20 18 20.1 19.4 88% 76.17 0.0
04 01:35 W 6 16.09 Overcast OVC031 20 18 88% 76.17 0.0
04 01:15 N 2 16.09 Overcast OVC033 20 18 88% 76.17 0.0
04 00:55 NW 4 16.09 Overcast OVC033 20 19 94% 76.2 0.0
04 00:35 W 4 16.09 Overcast OVC033 20 19 94% 76.17 0.0
04 00:15 W 4 16.09 Overcast BKN035 OVC042 20 18 88% 76.2 0.0
03 23:55 N 2 16.09 Overcast BKN031 OVC039 20 18 88% 76.17 0.0
03 23:35 NW 4 0.00 Mostly Cloudy BKN031 BKN037 0 0 0% 76.17 0.0
03 23:15 SW 6 0.00 Overcast OVC035 0 0 0% 76.17 0.0
03 22:55 N 2 16.09 Overcast OVC034 20 19 94% 76.15 0.0
03 22:35 W 6 16.09 Overcast OVC034 20 19 94% 76.17 0.0
03 22:15 NW 4 16.09 Overcast OVC032 20 19 94% 76.17 0.0
03 21:55 N 2 16.09 Overcast OVC030 20 18 88% 76.17 0.0
03 21:35 NE 2 16.09 Overcast OVC028 20 18 88% 76.17 0.0
03 21:15 W 4 16.09 Overcast OVC028 20 19 94% 76.15 0.0
03 20:55 W 4 16.09 Overcast OVC030 20 18 88% 76.12 0.0
03 20:35 S 4 16.09 Overcast OVC030 20 18 88% 76.1 0.0
03 20:15 S 4 16.09 Mostly Cloudy BKN034 BKN100 20 18 88% 76.1 0.0
03 19:55 SW 2 16.09 A Few Clouds FEW034 FEW100 20 18 21.7 19.3 88% 76.1 0.0
03 19:35 SW 4 16.09 Mostly Cloudy BKN024 20 18 88% 76.1 0.0
03 19:15 S 6 16.09 Mostly Cloudy BKN024 21 17 78% 76.07 0.0
03 18:55 S 4 16.09 A Few Clouds FEW026 21 17 78% 76.05 0.0
03 18:35 S 6 16.09 Partly Cloudy SCT026 SCT090 21 17 78% 76.07 0.0
03 18:15 S 7 16.09 Fair CLR 21 17 78% 76.05 0.0
03 17:55 E 13 16.09 Fair CLR 21 18 83% 76 0.0
03 17:35 E 11 16.09 Fair CLR 21 19 88% 75.97 0.0
03 17:15 E 13 16.09 Fair CLR 20 18 88% 75.97 0.0
03 16:55 NE 11 16.09 Fair CLR 20 19 94% 76 0.0
03 16:35 E 13 16.09 Fair CLR 20 18 88% 76.02 0.0
03 16:15 Vrbl 4 16.09 Partly Cloudy FEW050 SCT080 20 18 88% 76.1 0.0
03 15:55 SW 6 16.09 Light Rain BKN050 BKN060 OVC080 19 18 94% 76.15 0.0 0.2
03 15:35 SW 11 12.87 Heavy Rain BKN028 BKN035 OVC050 20 18 88% 76.23 0.0
03 15:15 SW 9 16.09 Light Rain SCT026 OVC050 20 18 88% 76.23 0.0
03 14:35 Vrbl 4 16.09 Partly Cloudy FEW070 SCT085 20 17 83% 76.17 0.0
03 14:15 E 11 16.09 Fair CLR 20 17 83% 76.15 0.0
03 13:55 E 15 16.09 Mostly Cloudy BKN070 BKN100 20 17 23.1 16.8 83% 76.12 0.0
03 13:35 E 17 16.09 Mostly Cloudy FEW050 BKN080 21 17 78% 76.12 0.0
03 13:15 E 15 16.09 Fair CLR 21 17 78% 76.12 0.0
03 12:55 E 17 16.09 A Few Clouds FEW080 FEW090 22 17 73% 76.1 0.0
03 12:35 E 13 16.09 Mostly Cloudy SCT070 BKN090 22 17 73% 76.15 0.0
03 12:15 E 15 16.09 A Few Clouds FEW090 23 17 69% 76.12 0.0
03 11:55 E 15 16.09 Fair CLR 23 17 69% 76.1 0.0
03 11:35 E 13 16.09 Fair CLR 23 17 69% 76.1 0.0
03 11:15 E 11 16.09 Fair CLR 23 17 69% 76.1 0.0
03 10:55 E 13 16.09 Fair CLR 23 17 69% 76.1 0.0
03 10:35 NE 6 16.09 Fair CLR 22 17 73% 76.1 0.0
03 10:15 N 7 16.09 Fair CLR 22 17 73% 76.1 0.0
03 09:55 N 7 16.09 Fair CLR 21 17 78% 76.1 0.0
03 09:35 NE 9 16.09 Fair CLR 20 17 83% 76.1 0.0
03 09:15 N 13 16.09 Fair CLR 20 17 83% 76.1 0.0
03 08:55 N 11 16.09 Fair CLR 20 18 88% 76.1 0.0
03 08:35 N 2 16.09 Fair CLR 19 17 88% 76.1 0.0
03 08:15 Vrbl 2 16.09 Fair CLR 18 16 88% 76.1 0.0
03 07:55 W 6 16.09 Fair CLR 17 16 18 15.3 94% 76.1 0.0
03 07:35 SW 7 16.09 Fair CLR 16 16 100% 76.1 0.0
03 07:15 SW 6 16.09 Fair CLR 15 15 100% 76.1 0.0
03 06:55 W 4 12.87 A Few Clouds FEW100 16 16 100% 76.07 0.0
03 06:35 W 4 11.27 Fog/Mist CLR 16 15 94% 76.07 0.0
03 06:15 NW 4 14.48 Partly Cloudy SCT100 16 16 100% 76.07 0.0
03 05:55 N 4 16.09 Partly Cloudy SCT110 16 16 100% 76.07 0.0
03 05:35 N 4 14.48 Mostly Cloudy BKN110 16 16 100% 76.07 0.0
03 05:15 NW 6 12.87 Fair CLR 16 16 100% 76.07 0.0
03 04:55 NW 4 12.87 Fair CLR 16 16 100% 76.05 0.0
03 04:35 NW 6 11.27 Fair CLR 17 16 94% 76.05 0.0
03 04:15 NW 4 4.02 Fog/Mist CLR 17 16 94% 76.05 0.0
03 03:55 NW 4 11.27 Fog/Mist CLR 17 16 94% 76.05 0.0
03 03:35 NW 4 9.66 Fog/Mist FEW070 17 16 94% 76.05 0.0
03 03:15 NW 7 9.66 Fog/Mist FEW070 17 17 100% 76.05 0.0
03 02:55 N 6 11.27 Fog/Mist FEW070 17 17 100% 76.05 0.0
03 02:35 NW 7 9.66 Fog/Mist SCT002 BKN070 17 17 100% 76.05 0.0
03 02:15 NW 4 16.09 Overcast OVC002 18 17 94% 76.05 0.0
03 01:55 NW 2 16.09 Overcast OVC002 18 17 23.2 17.4 94% 76.05 0.0
03 01:35 W 2 8.05 Fog/Mist BKN002 18 17 94% 76.02 0.0
03 01:15 SW 4 4.83 Fog/Mist CLR 18 18 100% 76 0.0
03 00:55 W 4 14.48 Fair CLR 18 18 100% 76 0.0
03 00:35 W 4 9.66 Fog/Mist CLR 19 19 100% 75.97 0.0
03 00:15 NW 4 9.66 Fog/Mist CLR 19 18 94% 75.95 0.0
02 23:55 N 4 12.87 Fair CLR 19 19 100% 75.95 0.0
02 23:35 N 7 12.87 Fair CLR 19 19 100% 75.95 0.0
02 23:15 NE 7 16.09 Fair CLR 20 20 100% 75.97 0.0
02 22:55 NE 7 16.09 A Few Clouds FEW007 21 20 94% 75.97 0.0
02 22:35 NE 9 14.48 Fair CLR 21 20 94% 75.97 0.0
02 22:15 SE 6 16.09 Fair CLR 22 20 88% 75.97 0.0
02 21:55 E 7 8.05 Fog/Mist CLR 21 20 94% 75.97 0.0
02 21:35 E 6 11.27 Partly Cloudy SCT001 22 21 94% 75.95 0.0
02 21:15 E 6 3.22 Fog/Mist OVC001 21 21 100% 75.95 0.0
02 20:55 E 11 16.09 Fair CLR 22 21 94% 75.92 0.0
02 20:35 E 9 16.09 Partly Cloudy FEW004 SCT007 22 20 88% 75.92 0.0
02 20:15 E 7 12.87 Partly Cloudy SCT004 22 21 94% 75.95 0.0
02 19:55 NE 7 12.87 Fair CLR 22 21 29.6 22.3 94% 75.95 0.0
02 19:35 NE 11 14.48 Fair CLR 23 21 89% 75.92 0.0
02 19:15 E 15 16.09 Fair CLR 23 21 89% 75.92 0.0
02 18:55 E 13 16.09 A Few Clouds FEW044 FEW050 23 21 89% 75.92 0.0
02 18:35 E 15 16.09 Partly Cloudy FEW044 SCT050 24 21 83% 24 75.92 0.0
02 18:15 NE 17 16.09 Partly Cloudy SCT046 25 20 74% 26 75.9 0.0
02 17:55 NE 15 16.09 Partly Cloudy SCT046 SCT050 25 20 74% 26 75.9 0.0
02 17:35 E 19 16.09 Fair CLR 25 19 69% 26 75.9 0.0
02 17:15 E 17 16.09 Fair CLR 27 19 62% 28 75.9 0.0
02 16:55 E 7 16.09 Fair CLR 27 19 62% 28 75.87 0.0
02 16:35 NE 13 16.09 Fair CLR 27 19 62% 28 75.87 0.0
Date Time (edt) Wind (kph) Vis. (km) Weather Sky Cond. Air Dwpt Max. Min. Relative Humidity Wind Chill (°C) Heat Index (°C) altimeter (cm) sea level (mb) 1 hr 3 hr 6 hr
6 hour
Temperature (ºC) Pressure Precipitation (cm)